Location: Lake Almanor
(40.2485°N, 121.1442°W)
Time: 00:33:03
(UTC-08:00)

Envisat - Visible Passes

Search period start: 21 January 2020 00:00
Search period end: 31 January 2020 00:00
Orbit: 764 x 766 km, 98.1° (Epoch: 21 January)

Date Brightness Start Highest point End Pass type
(mag) Time Alt. Az. Time Alt. Az. Time Alt. Az.
21 Jan 5.7 05:45:38 10° NE 05:49:26 21° E 05:53:12 10° SE visible
21 Jan 4.7 18:38:01 10° SSW 18:42:39 35° W 18:47:19 10° NNW visible
22 Jan 3.2 06:46:51 10° NNE 06:51:58 83° ESE 06:57:02 10° SSW visible
22 Jan 3.1 18:00:43 10° S 18:05:47 81° WSW 18:10:54 10° NNW visible
23 Jan 4.7 06:10:24 10° NNE 06:15:06 36° E 06:19:45 10° SSE visible
23 Jan 5.7 19:04:37 10° SW 19:08:20 20° W 19:12:03 10° NW visible
24 Jan 6.1 05:34:53 10° NE 05:38:01 16° E 05:41:09 10° SE visible
24 Jan 4.2 18:26:28 10° S 18:31:19 45° W 18:36:12 10° NNW visible
25 Jan 3.5 06:35:36 10° NNE 06:40:40 65° E 06:45:42 10° S visible
25 Jan 3.0 17:49:26 10° SSE 17:54:30 80° ENE 17:59:36 10° N visible
25 Jan 6.4 19:32:45 10° WSW 19:34:06 11° W 19:35:26 10° WNW visible
26 Jan 5.2 05:59:21 10° NE 06:03:45 29° E 06:08:05 10° SSE visible
26 Jan 5.3 18:52:46 10° SSW 18:56:56 26° W 19:01:09 10° NW visible
27 Jan 6.3 05:24:27 10° ENE 05:26:37 13° E 05:28:46 10° ESE visible
27 Jan 3.7 18:15:01 10° S 18:19:59 58° W 18:25:01 10° NNW visible
28 Jan 4.0 06:24:23 10° NNE 06:29:21 51° E 06:34:16 10° S visible
28 Jan 3.0 17:38:14 10° SSE 17:43:14 63° ENE 17:48:16 10° N visible
28 Jan 6.1 19:19:58 10° WSW 19:22:40 14° W 19:25:24 10° WNW visible
29 Jan 5.6 05:48:23 10° NE 05:52:22 23° E 05:56:19 10° SE visible
29 Jan 4.9 18:41:04 10° SSW 18:45:34 32° W 18:50:08 10° NNW visible
30 Jan 3.3 18:03:37 10° S 18:08:41 74° WSW 18:13:47 10° NNW visible
